Weather Roundup
Issued by NWS

Home | Current Version | Previous Version | Text Only | Print | Product List | Glossary On
Versions: 1 2 3 4 5 6 7 8 9 10 11 12 13 14 15 16 17 18 19 20 21 22 23 24 25 26 27 28 29 30 31 32 33 34 35 36 37 38 39 40 41 42 43 44 45 46 47 48 49 50
000
NZUS93 KARX 030710
HRRWXR

CURRENT HOURLY OBSERVATIONS ACROSS
MUCH OF THE UPPER MISSISSIPPI VALLEY
NATIONAL WEATHER SERVICE LA CROSSE WI
100 AM CST SAT DEC 03 2016


...SOUTHEAST MINNESOTA...


CITY           SKY/WX    TMP DP  RH WIND       PRES   REMARKS
ROCHESTER      CLOUDY    28  22  78 W10       30.29F WCI  19
ROCHESTER/MAYO CLOUDY    28  21  75 NW8       30.30S WCI  20
WINONA         CLOUDY    32  23  69 W5        30.32F WCI  27
AUSTIN         CLOUDY    28  21  74 NW5       30.29F WCI  23
ALBERT LEA     CLOUDY    34  27  75 CALM      30.30S
DODGE CENTER   CLOUDY    27  21  80 W6        30.29F WCI  20
PRESTON        CLOUDY    27  20  76 NW7       30.30F WCI  20
OWATONNA       CLOUDY    28  21  74 NW7       30.30S WCI  21
FARIBAULT      CLOUDY    28  21  74 W5        30.31S WCI  23
$$

...ELSEWHERE IN MINNESOTA...


CITY           SKY/WX    TMP DP  RH WIND       PRES   REMARKS
MINNEAPOLIS    NOT AVBL
INTNL FALLS    CLOUDY    23  19  85 SW3       30.24F
DULUTH         CLOUDY    27  24  89 NW6       30.24R WCI  20
RED WING       CLOUDY    30  21  69 W6        30.30F WCI  24
REDWOOD FALLS  NOT AVBL
MANKATO        MIX PCPN  29  23  78 CALM      30.30F
WORTHINGTON    CLOUDY    27  22  81 NW7       30.28F WCI  19
FAIRMONT       CLOUDY    30  21  69 NW12      30.30F WCI  20
$$

...SOUTHWEST WISCONSIN...


CITY           SKY/WX    TMP DP  RH WIND       PRES   REMARKS
LA CROSSE      NOT AVBL
PRAIRIE DU CHI CLOUDY    32  22  67 W6        30.32F WCI  26
BOSCOBEL       CLOUDY    32  21  64 W8        30.33S WCI  25
LONE ROCK      CLOUDY    32  23  69 NW6       30.32F WCI  26
PLATTEVILLE    CLOUDY    31  25  78 NW8       30.30F WCI  23
FORT MC COY    CLOUDY    31  23  73 W3        30.31S
CAMP DOUGLAS   CLOUDY    31  23  74 W5        30.29S WCI  26
MAUSTON-NEW LI CLOUDY    31  24  73 NW3       30.28F
VIROQUA        CLOUDY    29  22  74 W3        30.28S
WIS DELLS      CLOUDY    30  23  74 W6        30.29S WCI  24
$$

...ELSEWHERE IN WISCONSIN...


CITY           SKY/WX    TMP DP  RH WIND       PRES   REMARKS
MILWAUKEE      CLOUDY    33  22  63 NW7       30.30F WCI  27
MADISON        CLOUDY    30  22  72 MISG      30.30F
GREEN BAY      NOT AVBL
EAU CLAIRE     CLOUDY    30  25  81 W6        30.29S WCI  24
BLACK RVR FLS  CLOUDY    32  22  66 NW3       30.29F
MEDFORD        CLOUDY    27  22  82 NW5       30.25S WCI  22
WAUSAU         CLOUDY    29  22  75 W6        30.25F WCI  23
WIS RAPIDS     CLOUDY    30  24  78 NW7       30.29F WCI  23
MARSHFIELD     CLOUDY    29  22  75 NW7       30.26S WCI  22
RICE LAKE      CLOUDY    30  24  79 CALM      30.29S
$$

...NORTHEAST IOWA...


CITY           SKY/WX    TMP DP  RH WIND       PRES   REMARKS
WATERLOO       CLOUDY    31  23  72 NW6       30.33S WCI  25
DUBUQUE        CLOUDY    30  23  75 NW6       30.31F WCI  24
DECORAH        CLOUDY    28  23  80 NW6G12    30.30S WCI  22
MASON CITY     NOT AVBL
CHARLES CITY   CLOUDY    30  25  80 NW5       30.31F WCI  25
OELWEIN        CLOUDY    30  27  86 NW9       30.32S WCI  22
$$

...ELSEWHERE IN IOWA...


CITY           SKY/WX    TMP DP  RH WIND       PRES   REMARKS
DES MOINES     CLOUDY    36  30  79 S3        30.36R
IOWA CITY      CLOUDY    31  27  85 W5        30.37R WCI  26
FORT DODGE     CLOUDY    32  27  80 SW5       30.32S WCI  27
MARSHALLTOWN   CLOUDY    32  28  85 CALM      30.32F
CEDAR RAPIDS   CLOUDY    31  28  89 W7        30.33R WCI  24
$$

...NORTHERN ILLINOIS...


CITY           SKY/WX    TMP DP  RH WIND       PRES   REMARKS
CHICAGO-OHARE  CLOUDY    33  24  69 SW3       30.31R
CHICAGO-MIDWAY CLOUDY    35  21  56 VRB5      30.32R WCI  31
MOLINE         CLOUDY    34  25  69 W5        30.34R WCI  30
ROCKFORD       CLOUDY    32  22  66 NW7       30.33S WCI  26
PEORIA         CLOUDY    36  27  69 CALM      30.36R
$$

NOTE: "FAIR" INDICATES FEW OR NO CLOUDS BELOW 12,000 FEET WITH NO
SIGNIFICANT WEATHER AND/OR OBSTRUCTIONS TO VISIBILITY. WIND
SPEEDS ARE IN MILES-PER-HOUR.




USA.gov is the U.S. government's official web portal to all federal, state and local government web resources and services.